Regional Weather Roundup
Issued by NWS Sioux Falls, SD

Home | Current Version | Previous Version | Text Only | Print | Product List | Glossary Off
Versions: 1 2 3 4 5 6 7 8 9 10 11 12 13 14 15 16 17 18 19 20 21 22 23 24 25 26 27 28 29 30 31 32 33 34 35 36 37 38 39 40 41 42 43 44 45 46 47 48 49 50

000
ASUS43 KFSD 121002
RWRFSD

WEATHER ROUNDUP FOR SE SOUTH DAKOTA/SW MINNESOTA/NW IOWA
NATIONAL WEATHER SERVICE SIOUX FALLS SD
400 AM CST FRI FEB 12 2016

NOTE: "FAIR" INDICATES FEW OR NO CLOUDS BELOW 12,000 FEET WITH NO
SIGNIFICANT WEATHER AND OR OBSTRUCTIONS TO VISIBILITY.


SDZ038>040-050-052>070-121100-
SOUTHEAST SOUTH DAKOTA

CITY           SKY/WX    TMP DP  RH WIND       PRES   REMARKS
BROOKINGS      CLOUDY    12   8  84 N15       30.29R WCI  -4
CHAMBERLAIN    CLOUDY    20  19  95 N10       30.34R WCI   9
HURON          CLOUDY    15  10  80 N14       30.37R WCI   0
MADISON        CLOUDY    14  14 100 N16       30.29R WCI  -2
MITCHELL       CLOUDY    19  14  81 N15       30.36R WCI   5
SIOUX FALLS    CLOUDY    19  13  77 N13       30.30R WCI   6
WINNER         CLOUDY    29  25  85 N13       30.31R WCI  19
YANKTON        CLOUDY    21  16  79 NW10      30.32R WCI  10
$$

MNZ071-072-080-081-089-090-097-098-121100-
SOUTHWEST MINNESOTA

CITY           SKY/WX    TMP DP  RH WIND       PRES   REMARKS
FAIRMONT       CLOUDY    16  10  79 NW18      30.23R WCI  -1
JACKSON        FLURRIES  14  10  85 NW17G23   30.25R WCI  -3
LUVERNE        PTCLDY    18  12  79 N9        30.29R WCI   6
MARSHALL       CLOUDY    11   7  84 N18       30.30R WCI  -7
MONTEVIDEO     CLOUDY     9   7  92 N8        30.34R WCI  -4
PIPESTONE      CLOUDY    14   7  73 N9        30.26R WCI   2
REDWOOD FALLS  MOCLDY    12   7  80 NW12      30.29R WCI  -2
TRACY          FLURRIES  12   9  87 NW13      30.30R WCI  -3
WINDOM         LGT SNOW  12   9  85 NW16      30.25R WCI  -4
WORTHINGTON    CLOUDY    10   7  85 NW16      30.27R WCI  -7
$$

IAZ001>003-012>014-020>022-031-032-NEZ013-014-SDZ071-121100-
NORTHWEST IOWA

CITY           SKY/WX    TMP DP  RH WIND       PRES   REMARKS
ESTHERVILLE    CLOUDY    15  11  83 NW20      30.24R WCI  -2
SIOUX CITY     CLOUDY    19  14  81 N10       30.31R WCI   7
SPENCER        MOCLDY    12   7  80 NW8       30.26R WCI   0
STORM LAKE     FLURRIES  16  16 100 NW14      30.25R WCI   1
$$

ABBREVIATIONS USED IN REMARKS
   TC - TEMPERATURE IN CELSIUS
  WCI - WIND CHILL INDEX
   HX - HEAT INDEX
  VSB - VISIBILITY




USA.gov is the U.S. government's official web portal to all federal, state and local government web resources and services.